Russell, KS

1:10 AM CDT on October 20, 2017 (GMT -0500)
Russell Municipal

Weather History for KRSL - November, 2011

Change the Weather History Date:

Friday, November 11, 2011

  Actual Average Record
Temperature  
Mean Temperature 47 °F -  
Max Temperature 66 °F 53 °F 78 °F (1989)
Min Temperature 28 °F 30 °F 7 °F (1986)
Degree Days  
Heating Degree Days 18    
Moisture  
Dew Point 27 °F    
Average Humidity 56    
Maximum Humidity 85    
Minimum Humidity 17    
Precipitation  
Precipitation 0.00 in - - ()
Sea Level Pressure  
Sea Level Pressure 29.84 in    
Wind  
Wind Speed 14 mph (WSW)    
Max Wind Speed 18 mph    
Max Gust Speed 20 mph    
Visibility 10 miles    
Events      
Averages and records for this station are not official NWS values.
T = Trace of Precipitation, MM = Missing Value Source: NWS Daily Summary

Daily Weather History Graph

Daily Weather History Graph

Search for Another Location

Airport or City:

Trip Planner

Search our weather history database for the weather conditions in past years. The results will help you decide how hot, cold, wet, or windy it might be!

Date:

Astronomy

Nov. 11, 2011 Rise Set
Actual Time 7:13 AM CST 5:24 PM CST
Civil Twilight 6:44 AM CST 5:53 PM CST
Nautical Twilight 6:12 AM CST 6:25 PM CST
Astronomical Twilight 5:41 AM CST 6:56 PM CST
Moon 5:55 PM CST (11/11) 8:02 AM CST (11/11)
Length of Visible Light 11h 08m
Length of Day
10h 11m
Full, 99% of the Moon is Illuminated
Nov 11
Full
Nov 18
Last Quarter
Nov 25
New
Dec 2
First Quarter
Dec 10
Full

Hourly Weather History & Observations

Time (CST) Temp. Windchill Dew Point Humidity Pressure Visibility Wind Dir Wind Speed Gust Speed Precip Events Conditions
12:53 AM 36.0 °F 26.7 °F 28.0 °F 73% 29.97 in 10.0 mi WSW 15.0 mph - N/A   Clear
1:53 AM 34.0 °F 23.8 °F 28.0 °F 79% 29.93 in 10.0 mi WSW 16.1 mph - N/A   Clear
2:53 AM 34.0 °F 23.8 °F 28.0 °F 79% 29.91 in 10.0 mi WSW 16.1 mph - N/A   Clear
3:53 AM 33.1 °F 22.2 °F 27.0 °F 78% 29.91 in 10.0 mi WSW 17.3 mph - N/A   Clear
4:53 AM 33.8 °F 22.8 °F 26.6 °F 75% 29.88 in 10.0 mi WSW 18.4 mph - N/A   Clear
5:53 AM 32.0 °F 21.2 °F 26.6 °F 80% 29.88 in 10.0 mi West 16.1 mph - N/A   Clear
6:53 AM 28.9 °F 17.7 °F 25.0 °F 85% 29.91 in 10.0 mi WSW 15.0 mph - N/A   Clear
7:53 AM 30.0 °F 19.1 °F 26.1 °F 85% 29.93 in 10.0 mi West 15.0 mph - N/A   Clear
8:53 AM 37.4 °F 28.5 °F 28.4 °F 70% 29.88 in 10.0 mi West 15.0 mph - N/A   Clear
9:53 AM 53.6 °F - 24.8 °F 33% 29.88 in 10.0 mi WNW 11.5 mph - N/A   Clear
10:53 AM 55.9 °F - 23.0 °F 28% 29.88 in 10.0 mi NW 13.8 mph - N/A   Clear
11:53 AM 57.9 °F - 23.0 °F 26% 29.88 in 10.0 mi NW 10.4 mph - N/A   Clear
12:53 PM 62.1 °F - 23.0 °F 22% 29.84 in 10.0 mi West 15.0 mph 19.6 mph N/A   Clear
1:53 PM 64.9 °F - 21.0 °F 19% 29.82 in 10.0 mi WNW 11.5 mph 18.4 mph N/A   Clear
2:53 PM 66.0 °F - 19.9 °F 17% 29.81 in 10.0 mi West 10.4 mph - N/A   Unknown
3:53 PM 66.0 °F - 23.0 °F 20% 29.81 in 10.0 mi WSW 11.5 mph - N/A   Unknown
4:53 PM 60.1 °F - 28.9 °F 31% 29.80 in 10.0 mi WSW 11.5 mph - N/A   Unknown
5:53 PM 46.9 °F - 30.0 °F 52% 29.82 in 10.0 mi SW 9.2 mph - N/A   Unknown
6:22 PM 46.4 °F 41.1 °F 32.0 °F 57% 29.78 in 10.0 mi SW 11.5 mph - N/A   Partly Cloudy
6:53 PM 45.0 °F 39.7 °F 30.9 °F 58% 29.82 in 10.0 mi SW 10.4 mph - N/A   Unknown
7:16 PM 44.6 °F 39.2 °F 30.2 °F 57% 29.78 in 10.0 mi SW 10.4 mph - N/A   Partly Cloudy
7:53 PM 43.0 °F 36.8 °F 32.0 °F 65% 29.82 in 10.0 mi SW 11.5 mph - N/A   Clear
8:53 PM 46.0 °F 39.9 °F 30.9 °F 56% 29.78 in 10.0 mi SW 13.8 mph - N/A   Clear
9:53 PM 43.0 °F 35.7 °F 30.9 °F 62% 29.75 in 10.0 mi SW 15.0 mph - N/A   Clear
10:53 PM 41.0 °F 33.1 °F 32.0 °F 70% 29.73 in 10.0 mi SW 15.0 mph - N/A   Clear
11:53 PM 37.9 °F 29.6 °F 32.0 °F 79% 29.72 in 10.0 mi SW 13.8 mph - N/A   Clear